{"data":{"norad_id":47502,"epoch":"2026-09-19T23:46:25.223808Z","epoch_age_seconds":58459,"freshness":"FRESH","line1":"1 47502U 21006CT  26262.99056972  .00004084  00000+0  11996-3 0  9996","line2":"2 47502  97.2199 305.4305 0005782 206.7130 153.3817 15.35674539314046","mean_motion":15.35674539,"eccentricity":0.0005782,"inclination_deg":97.2199,"raan_deg":305.4305,"arg_perigee_deg":206.713,"mean_anomaly_deg":153.3817,"bstar":0.00011996,"rev_number":31404,"period_min":93.769868772956,"perigee_km":454.96447696327,"apogee_km":462.87084697437,"semimajor_km":6837.0546619688,"source":"CELESTRAK","updated_at":"2026-09-20T09:00:47.448110Z"}}